Main page
METAR-TAF:

METAR-TAF

Airports :

RAF Spadeadam

Spadeadam, England

latitude: 55-03N, longitude: 002-33W, elevation: 325 m

Current weather observation

The report was made 54 minutes ago, at 14:50 UTC
Wind 13 kt from the West
Temperature 10°C
Humidity 87%
Pressure 1024 hPa
Visibility 10 km or more

METAR: EGOM 211450Z AUTO 27013KT 9999 FEW013/// BKN024/// 10/08 Q1024 RERA

Time: 16:44 (15:44 UTC)


TAF: missing

Weather observations and forecasts of more than 4000 airports (METAR and TAF reports).

The available stations are represented by yellow and red dots on the map.

Hover mouse over dot to see the name of the station.

Then click to see weather observations and forecasts.

To change the map : click on the green buttons with a black cross to zoom in, on the green button with a dash to zoom out, or on the green arrows for adjacent maps.


METAR-TAF: